Wind_Speed
29 25 28 27 31 24 23 22 15 20 21 21 21 21 20 18 18 18 19 19 18 19 20 21 22 23 25 27 30 34 36 39 43 43 45 47 49 47 42 37 28 29 34
36 35 32 33 37 29 25 28 27 25 22 24 24 26 25 23 22 23 22 22 23 24 24 24 25 25 26 28 30 34 36 39 43 46 46 47 48 49 47 40 32 28 31
38 33 35 41 35 27 26 26 24 22 18 23 27 28 29 28 27 25 24 24 25 26 27 27 28 29 29 31 33 34 36 38 41 46 46 47 47 48 50 43 39 28 29
37 38 41 36 32 30 32 30 29 26 28 29 30 32 33 32 31 30 29 28 27 28 29 29 30 32 32 32 35 36 37 39 41 44 44 45 44 46 47 46 46 33 30
43 41 41 35 33 35 38 35 34 34 36 37 37 36 37 37 36 34 32 31 32 31 32 30 31 33 35 36 37 38 40 41 42 43 43 44 44 45 46 48 47 37 33
43 38 36 38 39 37 43 41 39 41 44 45 41 39 39 41 42 39 38 36 35 35 35 34 33 35 36 37 38 38 41 43 40 41 41 40 40 42 43 45 46 38 36
41 35 33 42 42 46 47 46 49 48 46 47 45 43 42 43 44 43 43 42 41 40 40 39 38 38 39 38 38 40 43 43 39 39 38 37 37 38 40 40 44 40 37
41 39 41 42 44 47 51 50 50 49 51 55 54 46 44 46 47 45 44 44 46 45 45 43 42 41 40 38 37 40 41 42 33 35 28 30 31 31 32 30 39 42 47
53 44 46 49 50 50 49 54 53 49 48 49 49 46 45 47 48 47 44 42 46 48 49 49 48 46 45 39 38 38 40 40 33 31 27 29 28 28 29 27 36 41 45
60 58 59 60 61 59 57 55 55 55 53 46 49 49 47 47 46 49 47 44 43 47 49 51 50 49 49 46 39 39 40 36 32 31 32 30 30 30 30 31 34 40 39
73 72 67 69 65 62 60 60 53 48 48 46 45 49 48 50 47 46 46 45 45 45 48 52 52 49 47 46 42 38 36 33 35 30 26 28 29 33 34 32 33 34 36
78 77 73 68 59 61 61 56 57 54 50 48 48 49 51 47 48 49 48 48 47 48 50 51 51 48 46 46 41 34 32 26 24 24 27 30 31 33 36 34 36 33 33
85 82 80 77 75 73 69 67 66 64 61 56 51 50 51 51 47 50 50 52 54 51 49 49 48 48 44 39 34 29 24 22 22 25 23 28 32 34 36 37 35 34 34
89 88 85 84 82 82 79 74 71 67 65 61 55 51 53 54 51 53 47 50 50 50 51 48 44 43 43 39 37 28 24 23 24 26 23 27 34 36 38 42 32 31 32
93 91 88 87 83 83 82 79 73 69 66 60 59 58 54 51 51 58 59 57 57 53 51 47 41 40 39 37 35 30 25 29 30 30 30 30 32 37 40 40 30 27 28
95 92 91 91 87 86 86 81 74 71 71 65 60 60 59 56 52 54 57 58 57 56 51 47 43 40 40 38 37 34 32 36 35 35 32 30 32 38 46 41 37 37 37
100 97 94 92 92 91 86 82 80 76 76 72 66 62 63 61 59 55 52 51 53 50 46 45 42 38 39 40 40 40 39 41 38 31 30 31 39 40 43 39 40 44 46
100 98 96 95 94 93 90 88 87 80 79 78 75 70 68 63 62 60 56 53 49 46 44 42 39 35 38 39 41 41 41 45 43 44 39 31 36 40 43 46 46 47 46
106 99 98 98 99 98 93 92 96 87 85 85 81 78 74 68 65 64 61 58 51 48 45 45 40 40 42 41 39 40 41 47 48 47 45 36 31 36 42 38 48 53 46
111 103 101 102 103 102 97 92 93 93 92 93 89 85 81 79 72 68 67 63 50 55 56 53 46 45 43 45 44 41 41 45 49 49 49 44 42 38 39 39 47 51 48
114 109 106 103 104 101 96 92 90 92 94 97 96 94 89 87 84 81 74 69 65 58 56 53 53 55 50 47 49 47 46 49 50 50 51 51 53 50 45 45 51 53 46
122 116 112 108 107 104 98 97 94 91 94 95 97 100 99 93 93 88 82 78 72 68 63 61 62 61 56 53 52 50 51 54 55 54 56 53 55 55 52 48 49 52 53
124 123 118 115 113 109 103 104 98 97 94 93 93 96 96 95 95 94 88 85 81 73 72 69 69 68 65 60 60 58 57 58 59 58 59 62 60 60 59 63 58 52 54
123 121 120 119 116 114 112 111 107 104 100 99 99 98 98 99 100 99 96 92 88 83 78 76 74 74 74 69 67 65 63 63 63 65 64 63 64 65 62 62 61 57 58
125 124 123 120 119 118 116 115 115 114 114 113 114 111 109 106 105 104 103 101 98 92 88 84 82 79 76 76 73 70 70 69 69 68 69 67 66 66 65 65 63 61 60
110 115 122 124 123 123 121 121 119 119 121 122 122 119 116 114 111 111 110 107 103 101 96 91 89 86 82 78 74 71 73 74 73 74 75 75 74 73 74 70 71 71 70
Wind_Direction
270 282 283 291 308 284 262 258 281 302 289 277 263 260 261 269 278 285 293 300 305 314 320 324 331 337 342 347 352 356 356 358 359 3 3 3 0 4 4 360 354 358 357
264 285 277 285 300 281 274 268 281 284 281 277 271 261 262 263 269 277 284 293 301 306 308 311 317 323 330 334 343 349 349 351 353 353 358 360 359 357 359 0 354 353 358
265 271 278 286 285 279 281 269 276 258 281 286 275 268 262 261 262 267 273 280 289 295 299 304 310 314 319 326 333 340 341 344 347 346 353 352 355 355 355 357 355 348 348
265 266 279 279 278 278 272 281 266 268 273 283 287 278 268 263 263 263 266 271 277 283 289 297 303 307 312 319 325 331 333 336 339 341 347 346 350 351 353 354 355 346 350
257 260 271 265 267 273 269 279 272 267 277 280 282 274 272 267 265 266 267 268 271 275 282 289 295 302 307 312 318 324 326 328 332 338 342 344 345 348 352 352 354 350 347
258 253 258 268 267 270 273 278 270 272 275 281 274 270 271 272 269 268 267 268 271 275 279 284 290 295 299 305 312 317 319 323 327 334 337 342 340 343 359 357 355 354 351
242 244 246 254 257 262 264 270 274 276 275 274 273 265 267 268 270 270 272 273 273 273 276 281 284 289 294 302 308 310 312 315 320 328 333 336 335 335 345 357 359 358 355
229 243 252 256 258 257 261 266 274 278 277 272 272 262 265 267 268 269 271 273 275 277 278 279 280 285 290 295 300 305 309 310 315 319 326 325 328 331 341 349 350 353 358
232 242 256 258 259 261 258 265 271 274 279 273 261 259 259 264 266 268 268 269 272 276 278 279 281 284 287 290 294 300 303 301 310 310 317 318 322 333 335 335 343 343 349
239 241 256 259 258 258 260 263 269 273 278 270 260 261 261 261 263 265 269 268 269 272 276 278 280 282 284 290 296 294 294 300 303 307 313 312 317 321 328 329 336 338 352
243 249 252 254 255 255 258 262 261 264 273 274 268 261 263 266 268 267 269 269 271 273 274 277 280 283 287 288 291 291 296 299 300 303 305 317 317 316 322 328 334 337 346
243 246 250 253 251 252 256 257 261 266 268 273 270 265 261 262 266 268 269 271 272 272 274 276 280 284 286 285 285 289 292 289 290 301 322 326 327 319 318 319 326 333 336
246 246 246 250 253 256 261 260 264 267 268 268 271 272 265 270 269 267 269 273 274 276 277 277 279 277 276 277 279 285 284 282 292 307 316 330 325 322 317 317 316 332 333
245 247 247 248 250 253 254 254 257 261 262 262 264 268 266 269 261 266 268 271 271 274 277 276 278 274 270 271 275 278 272 276 280 285 304 314 313 319 316 315 314 319 325
242 245 247 249 249 251 254 255 258 260 261 264 263 263 266 267 267 265 265 266 268 271 274 273 268 265 263 262 267 268 267 272 272 283 300 304 315 318 313 303 298 304 317
243 244 246 249 251 252 253 256 256 260 261 264 264 262 266 268 267 265 265 267 268 269 271 269 267 255 254 261 266 265 274 269 269 283 290 300 310 315 306 303 299 298 304
243 243 244 245 247 250 252 255 256 258 259 261 262 262 262 265 268 269 268 269 270 269 267 268 268 260 254 256 262 262 262 261 265 277 281 298 300 304 302 300 296 297 303
242 243 243 244 244 247 248 253 255 255 256 258 260 261 261 259 264 267 270 270 271 267 265 265 263 261 255 252 257 259 258 254 261 272 273 281 285 292 292 293 295 296 300
248 248 247 246 247 248 247 249 252 252 253 255 256 259 260 256 260 263 265 267 271 270 266 266 261 258 253 250 253 259 256 253 260 265 274 273 272 276 277 279 286 287 291
246 245 247 248 249 248 249 248 251 253 252 255 255 254 257 257 255 258 261 262 259 259 261 262 264 263 258 251 249 251 257 255 257 265 269 263 261 269 277 272 274 278 285
249 248 246 247 250 250 250 250 248 250 252 252 255 256 255 255 256 258 258 258 259 257 255 256 259 259 258 254 250 250 251 255 258 261 263 263 265 268 273 270 272 279 287
249 250 250 249 248 249 248 247 248 246 247 249 251 254 256 254 253 254 256 256 256 256 256 254 251 253 251 250 252 251 252 253 256 256 260 263 265 265 268 274 274 281 286
247 250 251 251 251 251 249 250 250 247 246 248 250 249 251 254 254 255 255 253 253 252 254 256 255 254 251 249 251 250 252 252 254 256 259 259 263 267 270 273 278 282 284
247 248 249 251 251 251 250 249 250 247 244 242 245 247 248 248 251 255 256 253 253 253 251 251 253 254 256 256 251 249 250 250 252 256 257 260 263 266 273 274 276 283 286
249 250 251 249 248 249 249 250 249 248 247 247 249 249 248 248 248 249 252 255 255 253 252 252 251 251 254 256 256 253 250 250 252 254 259 261 262 264 268 272 276 279 281
250 248 248 249 250 250 249 249 247 247 248 247 246 248 248 248 246 247 248 249 252 255 253 251 250 250 249 250 252 253 253 251 253 255 258 260 262 262 262 267 272 276 278
Height
10996 10999 10998 10998 10999 11001 11002 11003 11003 11004 11005 11005 11005 11006 11007 11008 11008 11008 11007 11006 11005 11004 11002 11000 10999 10996 10994 10991 10987 10983 10977 10972 10967 10963 10956 10948 10940 10934 10928 10922 10916 10911 10906
10989 10992 10994 10992 10992 10995 10995 10997 10998 10999 11000 11000 11001 11001 11002 11003 11003 11004 11003 11002 11001 11000 10999 10997 10995 10993 10991 10988 10985 10981 10976 10970 10964 10958 10954 10948 10941 10933 10926 10920 10914 10910 10904
10981 10983 10986 10987 10986 10987 10989 10990 10992 10994 10994 10995 10996 10997 10998 10998 10998 10998 10998 10998 10997 10996 10994 10992 10991 10989 10987 10984 10982 10978 10973 10969 10964 10956 10952 10947 10941 10933 10924 10918 10912 10907 10902
10971 10974 10976 10979 10980 10980 10982 10983 10985 10987 10988 10989 10990 10991 10991 10991 10992 10992 10992 10992 10991 10990 10989 10987 10985 10982 10981 10979 10977 10974 10970 10966 10962 10956 10951 10944 10938 10932 10925 10917 10909 10903 10898
10963 10965 10967 10971 10972 10972 10974 10975 10977 10978 10979 10980 10981 10981 10983 10983 10983 10984 10985 10984 10984 10984 10983 10982 10980 10977 10975 10973 10972 10969 10965 10962 10959 10954 10948 10941 10934 10928 10923 10915 10907 10900 10894
10954 10957 10959 10957 10960 10962 10964 10967 10969 10970 10971 10970 10971 10972 10973 10973 10974 10976 10976 10976 10976 10975 10975 10975 10974 10972 10970 10968 10967 10964 10960 10956 10952 10951 10945 10940 10932 10926 10919 10914 10907 10899 10893
10944 10947 10949 10951 10949 10950 10954 10956 10957 10959 10961 10962 10962 10962 10963 10964 10964 10966 10968 10968 10969 10968 10966 10966 10966 10964 10962 10961 10961 10959 10955 10952 10947 10945 10941 10936 10931 10924 10918 10912 10907 10901 10894
10931 10933 10938 10940 10941 10941 10942 10945 10948 10949 10949 10950 10953 10952 10952 10953 10954 10956 10958 10961 10961 10960 10958 10958 10957 10956 10955 10955 10954 10953 10949 10944 10943 10940 10938 10934 10929 10925 10920 10915 10909 10902 10894
10919 10924 10927 10929 10931 10933 10934 10935 10937 10940 10939 10938 10940 10942 10942 10941 10942 10944 10948 10951 10952 10951 10949 10949 10948 10948 10945 10946 10948 10947 10943 10936 10936 10934 10932 10929 10925 10921 10917 10912 10907 10901 10894
10905 10909 10915 10917 10920 10921 10923 10926 10928 10929 10928 10929 10929 10930 10930 10931 10933 10935 10937 10938 10940 10940 10939 10939 10938 10938 10936 10935 10939 10938 10935 10930 10929 10926 10924 10922 10919 10915 10912 10908 10904 10898 10892
10890 10895 10898 10902 10905 10908 10912 10913 10916 10917 10916 10915 10917 10919 10921 10922 10922 10923 10926 10929 10930 10929 10929 10928 10927 10927 10926 10926 10927 10927 10926 10924 10921 10919 10916 10915 10913 10910 10907 10902 10898 10893 10887
10871 10877 10882 10887 10889 10893 10897 10898 10898 10904 10905 10906 10906 10907 10909 10910 10912 10912 10914 10917 10918 10920 10918 10916 10915 10916 10917 10915 10915 10916 10916 10916 10914 10913 10912 10909 10905 10903 10899 10896 10891 10886 10881
10851 10858 10864 10868 10871 10875 10880 10883 10885 10887 10891 10895 10897 10896 10897 10900 10902 10902 10903 10903 10904 10909 10906 10905 10905 10904 10905 10905 10906 10907 10908 10909 10908 10908 10905 10901 10898 10893 10890 10888 10885 10879 10875
10832 10838 10845 10850 10855 10859 10864 10868 10872 10874 10878 10881 10884 10886 10888 10891 10892 10891 10890 10891 10893 10896 10896 10896 10894 10894 10894 10896 10896 10898 10899 10899 10898 10897 10894 10892 10889 10885 10882 10880 10877 10873 10869
10813 10819 10825 10831 10837 10840 10845 10850 10856 10860 10863 10867 10870 10873 10876 10879 10879 10875 10877 10878 10880 10883 10885 10884 10883 10884 10884 10885 10886 10888 10890 10890 10889 10886 10883 10882 10881 10878 10874 10871 10869 10866 10862
10791 10799 10807 10810 10817 10821 10826 10833 10839 10844 10847 10852 10855 10859 10860 10862 10864 10864 10864 10865 10867 10869 10870 10870 10872 10873 10873 10875 10876 10879 10881 10879 10879 10878 10876 10875 10874 10872 10868 10865 10863 10859 10854
10766 10775 10784 10792 10796 10800 10806 10813 10821 10826 10829 10833 10837 10842 10845 10847 10849 10850 10851 10852 10854 10855 10855 10857 10859 10862 10862 10863 10866 10867 10869 10869 10869 10867 10867 10864 10866 10864 10860 10858 10854 10850 10846
10743 10753 10761 10768 10773 10779 10787 10792 10797 10806 10810 10814 10820 10825 10828 10831 10833 10836 10838 10839 10840 10842 10843 10844 10846 10848 10849 10850 10852 10854 10857 10857 10857 10858 10858 10857 10856 10854 10852 10850 10848 10841 10839
10719 10733 10739 10744 10749 10756 10767 10773 10775 10784 10788 10795 10801 10804 10810 10815 10817 10820 10823 10826 10829 10830 10830 10830 10834 10835 10836 10838 10839 10842 10844 10846 10847 10847 10847 10847 10845 10843 10842 10841 10838 10832 10832
10692 10703 10712 10720 10726 10733 10743 10753 10759 10764 10769 10772 10778 10786 10789 10794 10800 10804 10806 10809 10814 10816 10815 10817 10820 10822 10823 10826 10826 10827 10830 10834 10834 10834 10835 10836 10834 10832 10831 10829 10825 10824 10823
10667 10678 10687 10695 10701 10710 10720 10728 10736 10743 10747 10751 10754 10759 10767 10774 10778 10782 10786 10792 10795 10799 10799 10801 10803 10806 10809 10810 10812 10813 10815 10817 10819 10820 10821 10823 10821 10820 10818 10817 10816 10817 10813
10636 10647 10657 10667 10675 10683 10693 10701 10708 10716 10721 10727 10731 10735 10738 10746 10752 10758 10763 10768 10775 10779 10782 10784 10785 10788 10792 10793 10795 10797 10799 10801 10802 10804 10805 10807 10806 10806 10806 10805 10804 10803 10801
10612 10620 10630 10638 10646 10655 10666 10672 10680 10686 10694 10700 10705 10710 10713 10718 10724 10730 10737 10744 10750 10757 10760 10765 10768 10769 10772 10775 10778 10779 10782 10783 10785 10787 10789 10789 10791 10791 10790 10790 10791 10791 10790
10582 10591 10599 10607 10616 10625 10632 10641 10650 10657 10663 10670 10677 10685 10689 10694 10698 10702 10708 10717 10723 10730 10737 10741 10745 10748 10752 10756 10759 10759 10762 10764 10765 10768 10771 10773 10774 10775 10776 10776 10775 10776 10776
10546 10556 10565 10575 10581 10588 10596 10606 10615 10623 10630 10639 10644 10650 10658 10665 10672 10677 10682 10687 10694 10702 10710 10718 10723 10727 10731 10735 10739 10741 10741 10745 10747 10749 10752 10754 10757 10758 10760 10760 10760 10761 10761
10510 10520 10530 10538 10546 10554 10561 10568 10575 10582 10589 10597 10606 10614 10622 10629 10638 10645 10652 10658 10665 10671 10679 10688 10696 10702 10708 10712 10717 10720 10723 10727 10729 10732 10734 10736 10738 10741 10743 10743 10744 10745 10746